Pineville, WV

6:23 AM EDT on April 27, 2017 (GMT -0400)
Pineville

Weather History for KI16 - December, 2013

Change the Weather History Date:

Tuesday, December 10, 2013

  Actual Average (KBKW) Record (KBKW)
Temperature  
Mean Temperature 29 °F -  
Max Temperature 38 °F 44 °F 73 °F (1971)
Min Temperature 20 °F 28 °F -7 °F (1917)
Degree Days  
Heating Degree Days 36    
Moisture  
Dew Point 30 °F    
Average Humidity 97    
Maximum Humidity 100    
Minimum Humidity 88    
Precipitation  
Precipitation 0.00 in - - ()
Sea Level Pressure  
Sea Level Pressure 30.19 in    
Wind  
Wind Speed - (North)    
Max Wind Speed -    
Max Gust Speed -    
Visibility 7 miles    
Events Snow    
Averages and records for this station are not official NWS values.
T = Trace of Precipitation, MM = Missing Value Source: NWS Daily Summary

Daily Weather History Graph

Daily Weather History Graph

Search for Another Location

Airport or City:

Trip Planner

Search our weather history database for the weather conditions in past years. The results will help you decide how hot, cold, wet, or windy it might be!

Date:

Astronomy

Dec. 10, 2013 Rise Set
Actual Time 7:30 AM EST 5:07 PM EST
Civil Twilight 7:01 AM EST 5:37 PM EST
Nautical Twilight 6:28 AM EST 6:09 PM EST
Astronomical Twilight 5:56 AM EST 6:41 PM EST
Moon 1:02 PM EST (12/10) 12:53 AM EST (12/10)
Length of Visible Light 10h 35m
Length of Day
9h 37m
First Quarter, 61% of the Moon is Illuminated
Dec 10
First Quarter
Dec 17
Full
Dec 25
Last Quarter
Jan 1
New
Jan 7
First Quarter

Hourly Weather History & Observations

Time (EST) Temp. Dew Point Humidity Pressure Visibility Wind Dir Wind Speed Gust Speed Precip Events Conditions
12:15 AM 37.9 °F 36.7 °F 95% 30.10 in 10.0 mi North - - N/A   Overcast
12:35 AM 37.9 °F 36.7 °F 95% 30.08 in 10.0 mi North - - N/A   Overcast
12:55 AM 38.3 °F 36.9 °F 95% 30.08 in 10.0 mi North - - N/A   Overcast
1:15 AM 38.3 °F 36.5 °F 93% 30.08 in 10.0 mi North - - N/A   Overcast
1:35 AM 38.3 °F 36.3 °F 93% 30.07 in 10.0 mi North - - N/A   Overcast
1:55 AM 37.9 °F 36.3 °F 94% 30.10 in 10.0 mi North - - N/A   Overcast
2:15 AM 37.9 °F 35.8 °F 92% 30.13 in 10.0 mi North - - N/A   Overcast
2:35 AM 37.8 °F 35.6 °F 92% 30.10 in 10.0 mi North - - N/A   Overcast
2:55 AM 36.7 °F 35.6 °F 96% 30.09 in 4.0 mi North - - N/A Snow Light Snow
3:15 AM 36.1 °F 35.8 °F 99% 30.08 in 1.2 mi North - - N/A Snow Snow
3:35 AM 34.7 °F 34.7 °F 100% 30.06 in 1.0 mi North - - N/A Snow Snow
3:55 AM 34.7 °F 34.7 °F 100% 30.08 in 1.2 mi North - - N/A Snow Snow
4:15 AM 34.9 °F 34.9 °F 100% 30.07 in 0.8 mi North - - N/A Snow Snow
4:35 AM 34.7 °F 34.7 °F 100% 30.06 in 0.8 mi North - - N/A Snow Snow
5:35 AM 34.2 °F 34.2 °F 100% 30.06 in 3.0 mi North - - N/A Snow Light Snow
5:55 AM 33.8 °F 33.8 °F 100% 30.06 in 3.0 mi North - - N/A Snow Light Snow
6:15 AM 34.3 °F 34.3 °F 100% 30.06 in 2.0 mi North - - N/A Snow Light Snow
6:35 AM 33.4 °F 33.4 °F 100% 30.07 in 4.0 mi North - - N/A Snow Light Snow
6:55 AM 33.6 °F 33.6 °F 100% 30.05 in 2.5 mi North - - N/A Snow Light Snow
7:15 AM 33.3 °F 33.3 °F 100% 30.04 in 5.0 mi North - - N/A Snow Light Snow
7:35 AM 33.1 °F 33.1 °F 100% 30.05 in 3.0 mi North - - N/A Snow Light Snow
7:55 AM 33.1 °F 33.1 °F 100% 30.06 in 1.5 mi North - - N/A Snow Light Snow
8:15 AM 33.1 °F 33.1 °F 100% 30.08 in 2.0 mi North - - N/A Snow Light Snow
8:35 AM 32.9 °F 32.9 °F 100% 30.08 in 1.0 mi North - - N/A Snow Light Snow
8:55 AM 32.5 °F 32.5 °F 100% 30.09 in 1.2 mi North - - N/A Snow Light Snow
9:15 AM 32.9 °F 32.9 °F 100% 30.09 in 1.5 mi North - - N/A Snow Light Snow
9:35 AM 32.7 °F 32.4 °F 99% 30.11 in 1.5 mi North - - N/A Snow Light Snow
9:55 AM 32.2 °F 32.0 °F 99% 30.13 in 2.0 mi North - - N/A Snow Light Snow
10:15 AM 32.2 °F 32.0 °F 99% 30.14 in 4.0 mi North - - N/A Snow Light Snow
10:35 AM 32.0 °F 31.6 °F 99% 30.16 in 10.0 mi North - - N/A   Overcast
10:55 AM 32.0 °F 31.1 °F 96% 30.18 in 5.0 mi North - - N/A Snow Light Snow
11:15 AM 31.6 °F 30.7 °F 96% 30.20 in 5.0 mi North - - N/A   Overcast
11:35 AM 31.1 °F 30.0 °F 96% 30.20 in 4.0 mi North - - N/A   Overcast
11:55 AM 31.5 °F 30.0 °F 94% 30.20 in 7.0 mi North - - N/A   Overcast
12:15 PM 31.8 °F 29.7 °F 92% 30.19 in 7.0 mi North - - N/A   Mostly Cloudy
12:35 PM 31.5 °F 29.7 °F 93% 30.20 in 7.0 mi North - - N/A   Overcast
12:55 PM 31.8 °F 28.6 °F 88% 30.20 in 10.0 mi North - - N/A   Overcast
1:15 PM 30.7 °F 28.2 °F 90% 30.20 in 10.0 mi North - - N/A   Overcast
1:35 PM 31.1 °F 28.4 °F 90% 30.20 in 10.0 mi North - - N/A   Overcast
1:55 PM 30.6 °F 28.8 °F 93% 30.20 in 7.0 mi North - - N/A   Overcast
2:15 PM 31.1 °F 28.9 °F 92% 30.20 in 7.0 mi North - - N/A   Overcast
2:35 PM 30.7 °F 28.9 °F 93% 30.21 in 10.0 mi North - - N/A   Overcast
2:55 PM 31.5 °F 29.3 °F 92% 30.22 in 10.0 mi North - - N/A   Overcast
3:15 PM 31.8 °F 29.3 °F 90% 30.23 in 10.0 mi North - - N/A   Mostly Cloudy
3:35 PM 31.5 °F 28.8 °F 90% 30.23 in 10.0 mi North - - N/A   Overcast
3:55 PM 31.1 °F 28.4 °F 90% 30.24 in 10.0 mi North - - N/A   Overcast
4:15 PM 31.1 °F 28.9 °F 92% 30.24 in 10.0 mi North - - N/A   Overcast
4:35 PM 30.6 °F 28.4 °F 92% 30.25 in 10.0 mi North - - N/A   Scattered Clouds
4:55 PM 29.3 °F 28.4 °F 96% 30.25 in 10.0 mi North - - N/A   Clear
5:15 PM 28.4 °F 27.9 °F 98% 30.25 in 10.0 mi North - - N/A   Clear
5:35 PM 27.1 °F 27.0 °F 99% 30.26 in 10.0 mi North - - N/A   Clear
5:55 PM 26.8 °F 26.8 °F 100% 30.26 in 10.0 mi North - - N/A   Clear
6:15 PM 26.1 °F 26.1 °F 100% 30.27 in 10.0 mi North - - N/A   Clear
6:35 PM 25.7 °F 25.7 °F 100% 30.28 in 10.0 mi North - - N/A   Clear
6:55 PM 25.3 °F 25.3 °F 100% 30.29 in 7.0 mi North - - N/A   Clear
7:15 PM 24.8 °F 24.8 °F 100% 30.30 in 10.0 mi North - - N/A   Clear
7:35 PM 24.6 °F 24.6 °F 100% 30.31 in 10.0 mi North - - N/A   Clear
7:55 PM 24.1 °F 24.1 °F 100% 30.31 in 10.0 mi North - - N/A   Clear
8:15 PM 23.7 °F 23.7 °F 100% 30.32 in 10.0 mi North - - N/A   Clear
8:35 PM 23.0 °F 23.0 °F 100% 30.32 in 10.0 mi North - - N/A   Clear
8:55 PM 23.0 °F 23.0 °F 100% 30.32 in 10.0 mi North - - N/A   Clear
9:15 PM 22.6 °F 22.6 °F 100% 30.32 in 10.0 mi North - - N/A   Clear
9:35 PM 22.6 °F 22.6 °F 100% 30.32 in 10.0 mi North - - N/A   Clear
9:55 PM 21.9 °F 21.9 °F 100% 30.32 in 10.0 mi North - - N/A   Clear
10:15 PM 21.9 °F 21.9 °F 100% 30.33 in 10.0 mi North - - N/A   Clear
10:35 PM 21.7 °F 21.6 °F 99% 30.32 in 10.0 mi North - - N/A   Clear
10:55 PM 21.2 °F 21.2 °F 100% 30.32 in 10.0 mi North - - N/A   Clear
11:15 PM 21.2 °F 21.2 °F 100% 30.32 in 10.0 mi North - - N/A   Clear
11:35 PM 20.8 °F 20.8 °F 100% 30.33 in 10.0 mi North - - N/A   Clear
11:55 PM 20.8 °F 20.8 °F 100% 30.34 in 10.0 mi North - - N/A   Clear